Select another period ( hide this area )

Units Period Custom range Directly to
Metric English Both
Daily Weekly Monthly Yearly
use both date-selectors for a custom range
previous Day
With this date

WeatherUnderground graphs for this period ( click here ) Loading the graph can take up to a minute!


Daily Summary for Monday Feb 18 2019
Time Temp. ( °C ) Dew pt. ( °C ) Wind ( km/h ) From Gust ( km/h ) Pressure ( hPa ) Humid.( % ) Rainrate ( cm )
High15,8 5,3 9,7 WNW ( 50/126 ) 11,3 1019,2 84 -
Average8,4 2,3 0,4 Kalm #242/286 -15,5 1017,1 67 -
Low1,9 -0,5 -   -1607,4 1014,8 47 -
Daily Tabular details for Monday Feb 18 2019
Time Temp. ( °C ) Dew pt. ( °C ) Wind ( km/h ) From Gust ( km/h ) Pressure ( hPa ) Humid.( % ) Rainrate ( cm )
00:04 6,4 1,3   Kalm   1019,2 70 -
00:09 6,4 1,3   Kalm 1,6 1019,2 70 -
00:14 6,4 1,3   Kalm   1019,2 70 -
00:19 6,4 1,5   Kalm   1019,2 71 -
00:24 6,3 1,2   Kalm   1018,8 70 -
00:29 6,1 1,2   Kalm   1018,8 71 -
00:34 5,9 1,0   Kalm   1018,8 71 -
00:39 5,8 1,1   Kalm   1018,8 72 -
00:44 5,7 1,0   Kalm 1,6 1019,2 72 -
00:49 5,6 1,0   Kalm   1019,2 72 -
00:53 5,6 1,0   Kalm   1019,2 72 -
00:59 5,4 0,9   Kalm   1019,2 73 -
01:04 5,3 0,9   Kalm   1019,2 73 -
01:09 5,2 0,8   Kalm   1019,2 73 -
01:14 5,1 0,8   Kalm   1019,2 74 -
01:19 5,0 0,8   Kalm   1019,2 74 -
01:24 4,9 0,8   Kalm   1019,2 75 -
01:29 4,8 0,7   Kalm   1019,2 75 -
01:34 4,7 0,6   Kalm   1019,2 75 -
01:39 4,7 0,8   Kalm   1018,8 76 -
01:43 4,7 0,8   Kalm   1019,2 76 -
01:49 4,7 0,8   Kalm   1019,2 76 -
01:54 4,6 0,7   Kalm   1019,2 76 -
01:59 4,6 0,7   Kalm   1019,2 76 -
02:04 4,6 0,7   Kalm   1019,2 76 -
02:09 4,7 1,0   Kalm 1,6 1019,2 77 -
02:14 4,7 0,8   Kalm 1,6 1019,2 76 -
02:19 4,6 0,7   Kalm 1,6 1019,2 76 -
02:24 4,5 0,6   Kalm   1019,2 76 -
02:29 4,4 0,5   Kalm   1019,2 76 -
02:34 4,4 0,5   Kalm   1019,2 76 -
02:39 4,3 0,4   Kalm   1019,2 76 -
02:44 4,2 0,5   Kalm   1019,2 77 -
02:49 4,2 0,5   Kalm   1018,8 77 -
02:54 4,2 0,7   Kalm   1018,8 78 -
02:59 4,1 0,6   Kalm   1018,8 78 -
03:04 4,1 0,6   Kalm   1018,8 78 -
03:09 4,0 0,5   Kalm   1018,8 78 -
03:14 3,8 0,3   Kalm   1018,8 78 -
03:19 3,7 0,4   Kalm   1018,8 79 -
03:24 3,6 0,5   Kalm   1018,8 80 -
03:29 3,6 0,5   Kalm   1018,8 80 -
03:34 3,4 0,3   Kalm   1018,8 80 -
03:39 3,4 0,4   Kalm   1018,8 81 -
03:44 3,4 0,3   Kalm   1018,8 80 -
03:48 3,4 0,4   Kalm   1018,8 81 -
03:54 3,4 0,4   Kalm   1018,8 81 -
03:58 3,5 0,5   Kalm   1018,8 81 -
04:04 3,4 0,3   Kalm   1018,8 80 -
04:09 3,3 0,2   Kalm   1018,8 80 -
04:14 3,2 0,3   Kalm   1018,8 81 -
04:18 3,2 0,3   Kalm   1018,8 81 -
04:24 3,1 0,3   Kalm   1018,5 82 -
04:29 3,1 0,3   Kalm   1018,5 82 -
04:34 3,0 0,2   Kalm   1018,5 82 -
04:39 3,0 0,2   Kalm   1018,5 82 -
04:44 3,1 0,3   Kalm   1018,5 82 -
04:48 3,1 0,3   Kalm   1018,5 82 -
04:54 3,2 0,3   Kalm   1018,5 81 -
04:59 3,2 0,3   Kalm   1018,5 81 -
05:04 3,1 0,2   Kalm   1018,5 81 -
05:09 3,1 0,3   Kalm   1018,5 82 -
05:14 3,0 0,2   Kalm   1018,5 82 -
05:19 2,9 0,0   Kalm   1018,5 81 -
05:24 2,8 -0,1   Kalm   1018,5 81 -
05:28 2,7 -0,2   Kalm   1018,5 81 -
05:34 2,7 -0,1   Kalm   1018,5 82 -
05:39 2,7 0,1   Kalm   1018,5 83 -
05:44 2,8 0,0   Kalm   1018,5 82 -
05:49 2,8 0,0   Kalm   1018,8 82 -
05:54 2,8 0,0   Kalm   1018,8 82 -
05:59 2,8 -0,1   Kalm   1018,8 81 -
06:03 2,7 -0,1   Kalm   1018,8 82 -
06:09 2,6 -0,2   Kalm   1018,8 82 -
06:14 2,6 -0,2   Kalm   1018,8 82 -
06:19 2,6 0,0   Kalm   1018,8 83 -
06:24 2,5 -0,1   Kalm   1018,8 83 -
06:28 2,5 -0,1   Kalm   1018,8 83 -
06:34 2,5 -0,1   Kalm   1018,8 83 -
06:39 2,4 -0,2   Kalm   1018,5 83 -
06:43 2,5 -0,1   Kalm   1018,5 83 -
06:49 2,5 -0,1   Kalm   1018,5 83 -
06:54 2,5 -0,3   Kalm   1018,5 82 -
06:59 2,5 -0,1   Kalm   1018,5 83 -
07:04 2,5 -0,1   Kalm   1018,5 83 -
07:09 2,6 0,0   Kalm 1,6 1018,5 83 -
07:14 2,6 0,0   Kalm   1018,5 83 -
07:19 2,6 0,0   Kalm   1018,5 83 -
07:24 2,6 -0,2   Kalm   1018,5 82 -
07:29 2,6 0,0   Kalm   1018,5 83 -
07:34 2,6 0,0   Kalm   1018,5 83 -
07:39 2,4 -0,4   Kalm   1018,5 82 -
07:44 2,3 -0,3   Kalm   1018,5 83 -
07:49 2,2 -0,4   Kalm   1018,5 83 -
07:54 2,2 -0,4   Kalm   1018,5 83 -
07:59 2,1 -0,5   Kalm   1018,8 83 -
08:04 2,0 -0,4   Kalm   1018,8 84 -
08:09 1,9 -0,5   Kalm   1018,8 84 -
08:14 1,9 -0,5   Kalm 1,6 1018,8 84 -
08:19 2,0 -0,4   Kalm   1018,5 84 -
08:24 2,0 -0,4   Kalm 1,6 1018,8 84 -
08:29 2,1 -0,3   Kalm   1018,5 84 -
08:34 2,2 -0,2   Kalm   1018,5 84 -
08:39 2,2 -0,2   Kalm   1018,5 84 -
08:44 2,3 -0,1   Kalm 1,6 1018,5 84 -
08:49 2,4 -0,2   Kalm 1,6 1018,5 83 -
08:54 2,5 -0,1   Kalm   1018,5 83 -
08:59 2,6 0,0   Kalm   1018,2 83 -
09:03 2,7 0,1   Kalm   1018,2 83 -
09:09 2,8 0,2   Kalm   1018,2 83 -
09:14 3,1 0,3   Kalm   1018,2 82 -
09:19 3,1 0,3   Kalm   1018,2 82 -
09:24 3,1 0,3   Kalm   1018,2 82 -
09:29 3,1 0,3   Kalm -1607,4 1018,2 82 -
09:34 3,1 0,3   Kalm -1607,4 1018,2 82 -
09:39 3,1 0,3   Kalm -1607,4 1018,2 82 -
09:44 4,2 0,9   Kalm 1,6 1018,2 79 -
09:49 4,4 1,1   Kalm   1018,2 79 -
09:54 4,7 1,0   Kalm   1018,2 77 -
09:59 4,9 1,2   Kalm   1017,8 77 -
10:04 5,3 1,2   Kalm   1018,2 75 -
10:09 5,5 1,4   Kalm 1,6 1017,8 75 -
10:14 5,8 1,3   Kalm   1018,2 73 -
10:19 6,2 1,5   Kalm 1,6 1017,8 72 -
10:23 6,4 1,7   Kalm   1017,8 72 -
10:29 6,8 1,7   Kalm 1,6 1017,8 70 -
10:34 7,1 1,8   Kalm   1017,8 69 -
10:39 7,3 1,8   Kalm   1017,8 68 -
10:44 7,6 1,9   Kalm 1,6 1017,8 67 -
10:49 8,0 2,0   Kalm   1018,2 66 -
10:54 8,3 2,1   Kalm 1,6 1017,8 65 -
10:59 8,6 2,2   Kalm 1,6 1017,8 64 -
11:04 8,9 2,2   Kalm   1017,8 63 -
11:09 9,4 2,5   Kalm   1017,8 62 -
11:13 9,7 2,3   Kalm 1,6 1017,8 60 -
11:19 10,0 2,4   Kalm   1017,8 59 -
11:24 10,3 2,2   Kalm 1,6 1017,8 57 -
11:29 10,5 2,3   Kalm 1,6 1017,8 57 -
11:34 10,7 2,3   Kalm 1,6 1017,8 56 -
11:39 11,0 2,6   Kalm 1,6 1017,5 56 -
11:44 11,2 2,2   Kalm   1017,5 54 -
11:49 11,4 2,4   Kalm   1017,5 54 -
11:54 11,6 2,3   Kalm   1017,5 53 -
11:59 11,7 2,4   Kalm 1,6 1017,2 53 -
12:04 11,9 2,6   Kalm   1017,2 53 -
12:09 12,1 2,5   Kalm 1,6 1017,2 52 -
12:14 12,3 2,7 1,4 East 1,6 1017,2 52 -
12:19 12,4 2,5   Kalm 1,6 1016,8 51 -
12:24 12,6 2,7   Kalm 1,6 1016,8 51 -
12:29 12,7 2,8   Kalm 3,2 1016,8 51 -
12:34 12,9 2,7   Kalm   1016,8 50 -
12:39 13,0 2,8   Kalm   1016,8 50 -
12:44 13,2 3,0   Kalm 1,6 1016,8 50 -
12:49 13,3 3,1   Kalm 1,6 1016,8 50 -
12:54 13,4 2,9   Kalm 1,6 1016,8 49 -
12:59 13,6 2,8   Kalm   1016,8 48 -
13:04 13,7 2,9   Kalm 1,6 1016,5 48 -
13:09 13,8 3,0 9,7 West 9,7 1016,5 48 -
13:14 13,9 2,8 3,2 WSW 6,4 1016,5 47 -
13:19 13,9 2,8 3,2 SW 4,8 1016,5 47 -
13:24 14,0 2,9 3,2 WNW 6,4 1016,5 47 -
13:29 14,1 3,3 3,2 WNW 3,2 1016,1 48 -
13:34 14,2 3,3 1,4 East 3,2 1016,1 48 -
13:39 14,2 3,0 3,2 WNW 3,2 1016,1 47 -
13:44 14,2 3,3   Kalm 4,8 1016,1 48 -
13:49 14,3 3,4   Kalm 1,6 1015,8 48 -
13:54 14,4 3,2 3,2 NW 3,2 1015,8 47 -
13:59 14,4 3,2 1,4 SE 4,8 1015,8 47 -
14:04 14,4 3,2 3,2 WNW 6,4 1015,8 47 -
14:09 14,5 3,3 1,4 West 1,6 1015,8 47 -
14:13 14,6 3,7   Kalm 3,2 1015,5 48 -
14:19 14,6 3,7 1,4 East 1,6 1015,5 48 -
14:24 14,7 3,5 7,9 NW 8,0 1015,5 47 -
14:29 14,8 3,6   Kalm 1,6 1015,5 47 -
14:34 14,9 3,7 8,0 West 8,0 1015,1 47 -
14:39 14,9 4,0   Kalm   1015,5 48 -
14:44 14,9 3,7 7,9 WNW 9,7 1015,1 47 -
14:49 14,8 3,9 3,2 WNW 6,4 1015,1 48 -
14:54 14,9 4,0 1,4 WNW 9,7 1015,1 48 -
14:59 14,9 4,0 6,4 WNW 6,4 1015,1 48 -
15:04 14,9 4,0   Kalm 4,8 1015,1 48 -
15:09 15,1 3,9 1,4 WSW 3,2 1015,1 47 -
15:14 15,1 3,9   Kalm   1015,1 47 -
15:19 15,1 4,2 3,2 WSW 4,8 1015,1 48 -
15:24 15,2 4,3   Kalm 8,0 1015,1 48 -
15:29 15,2 4,0 1,4 WNW 4,8 1015,1 47 -
15:34 15,2 4,0 1,4 West 8,0 1015,1 47 -
15:39 15,3 4,4   Kalm 3,2 1015,1 48 -
15:44 15,3 4,4   Kalm 1,6 1015,1 48 -
15:49 15,4 4,4   Kalm 1,6 1015,1 48 -
15:53 15,4 4,4   Kalm   1015,1 48 -
15:59 15,3 4,1   Kalm 1,6 1015,1 47 -
16:03 15,3 4,1   Kalm 1,6 1015,1 47 -
16:09 15,3 4,1   Kalm 4,8 1015,1 47 -
16:14 15,3 4,4 1,4 WNW 1,6 1015,1 48 -
16:19 15,2 4,3   Kalm   1015,1 48 -
16:24 15,2 4,3   Kalm   1014,8 48 -
16:29 15,2 4,3   Kalm 1,6 1014,8 48 -
16:34 15,2 4,6   Kalm 1,6 1015,1 49 -
16:39 15,4 4,4   Kalm 1,6 1015,1 48 -
16:44 15,7 5,0   Kalm 4,8 1015,1 49 -
16:49 15,8 4,8 6,4 WNW 11,3 1015,1 48 -
16:54 15,7 5,0 4,7 WSW 6,4 1015,1 49 -
16:59 15,6 4,9   Kalm 8,0 1015,1 49 -
17:04 15,7 5,0   Kalm 1,6 1015,1 49 -
17:09 15,7 5,3   Kalm 1,6 1015,1 50 -
17:14 15,8 5,1   Kalm 1,6 1015,1 49 -
17:19 15,7 5,0   Kalm 1,6 1015,1 49 -
17:24 15,3 4,9   Kalm 1,6 1015,1 50 -
17:29 15,0 4,9 1,4 WSW 1,6 1015,1 51 -
17:34 14,7 4,9   Kalm 1,6 1015,1 52 -
17:39 14,5 4,8 1,4 West 3,2 1015,1 52 -
17:44 14,2 4,5   Kalm 6,4 1015,1 52 -
17:49 13,9 4,5   Kalm   1015,1 53 -
17:54 13,6 4,2   Kalm 1,6 1015,1 53 -
17:59 13,4 4,3 1,4 ESE 1,6 1015,1 54 -
18:04 13,2 4,4   Kalm 1,6 1015,1 55 -
18:09 12,9 4,3   Kalm 1,6 1015,1 56 -
18:14 12,8 4,2   Kalm 1,6 1015,1 56 -
18:19 12,7 4,1   Kalm   1015,1 56 -
18:24 12,5 4,2   Kalm 1,6 1015,1 57 -
18:29 12,4 4,1   Kalm   1015,1 57 -
18:34 12,2 4,2   Kalm   1015,1 58 -
18:39 12,0 4,2   Kalm   1015,1 59 -
18:44 11,8 4,0   Kalm   1015,1 59 -
18:49 11,7 4,2   Kalm   1015,1 60 -
18:54 11,6 4,1   Kalm   1015,5 60 -
18:58 11,5 4,2   Kalm 1,6 1015,1 61 -
19:04 11,3 4,1   Kalm   1015,5 61 -
19:09 11,2 4,2   Kalm   1015,1 62 -
19:14 11,2 4,2   Kalm   1015,1 62 -
19:19 10,9 3,9   Kalm   1015,1 62 -
19:24 10,8 4,0   Kalm   1015,1 63 -
19:29 10,8 4,0   Kalm   1015,5 63 -
19:34 10,8 3,8 1,4 ESE 1,6 1015,5 62 -
19:38 10,8 3,8   Kalm   1015,5 62 -
19:44 10,8 3,6   Kalm 1,6 1015,5 61 -
19:49 10,8 3,6   Kalm 1,6 1015,5 61 -
19:54 10,8 3,8   Kalm   1015,5 62 -
19:59 10,7 3,7 1,4 ESE 3,2 1015,5 62 -
20:04 10,7 3,7   Kalm 1,6 1015,5 62 -
20:09 10,7 3,7 1,4 ESE 3,2 1015,5 62 -
20:14 10,7 3,7 3,2 SE 6,4 1015,5 62 -
20:19 10,7 3,7   Kalm 1,6 1015,5 62 -
20:24 10,6 3,8   Kalm 6,4 1015,5 63 -
20:29 10,6 3,8   Kalm 1,6 1015,5 63 -
20:34 10,6 3,8   Kalm 1,6 1015,8 63 -
20:39 10,5 4,0 1,4 NW 1,6 1015,8 64 -
20:44 10,4 3,9 1,4 ENE 1,6 1015,8 64 -
20:49 10,4 3,9   Kalm 1,6 1015,8 64 -
20:54 10,3 3,8   Kalm 1,6 1015,8 64 -
20:59 10,3 4,0   Kalm 1,6 1015,8 65 -
21:04 10,2 3,9   Kalm 3,2 1015,8 65 -
21:09 10,1 4,0   Kalm 1,6 1015,8 66 -
21:13 10,0 3,9   Kalm 4,8 1015,8 66 -
21:19 9,9 4,1   Kalm 1,6 1015,8 67 -
21:24 9,8 4,0 6,4 WNW 6,4 1015,8 67 -
21:29 9,7 4,1   Kalm   1015,8 68 -
21:34 9,6 4,0   Kalm 1,6 1015,8 68 -
21:39 9,6 4,0 1,4 SSW 1,6 1015,8 68 -
21:44 9,6 4,2 1,4 ENE 1,6 1015,8 69 -
21:49 9,6 4,2 1,4 WNW 3,2 1015,8 69 -
21:54 9,6 4,2   Kalm 1,6 1015,8 69 -
21:59 9,5 4,1   Kalm 1,6 1015,8 69 -
22:04 9,4 4,2 1,4 West 4,8 1015,8 70 -
22:09 9,4 4,2   Kalm 3,2 1015,8 70 -
22:13 9,4 4,2   Kalm   1015,8 70 -
22:19 9,3 4,3   Kalm 1,6 1015,8 71 -
22:24 9,2 4,2   Kalm   1015,8 71 -
22:29 9,2 4,2   Kalm 3,2 1015,8 71 -
22:34 9,2 4,2 1,4 WNW 1,6 1015,8 71 -
22:39 9,1 4,3 1,4 West 3,2 1015,8 72 -
22:43 8,9 4,1 1,4 West 1,6 1015,8 72 -
22:49 8,9 4,1 1,4 West 3,2 1015,8 72 -
22:54 8,8 4,2   Kalm 1,6 1015,8 73 -
22:59 8,7 4,1   Kalm   1015,8 73 -
23:04 8,6 4,0   Kalm 1,6 1015,8 73 -
23:09 8,5 4,1   Kalm   1015,8 74 -
23:14 8,4 4,0   Kalm 4,8 1015,8 74 -
23:18 8,4 4,0   Kalm 1,6 1015,8 74 -
23:24 8,3 4,1   Kalm 3,2 1016,1 75 -
23:29 8,3 4,1   Kalm 1,6 1016,1 75 -
23:34 8,3 4,1   Kalm 3,2 1016,1 75 -
23:39 8,3 4,1   Kalm 1,6 1016,1 75 -
23:44 8,2 4,0   Kalm   1016,1 75 -
23:49 8,2 4,0   Kalm   1016,1 75 -
Daily Summary for Monday Feb 18 2019
Time Temp. ( °C ) Dew pt. ( °C ) Wind ( km/h ) From Gust ( km/h ) Pressure ( hPa ) Humid.( % ) Rainrate ( cm )
High15,8 5,3 9,7 WNW ( 50/126 ) 11,3 1019,2 84 -
Average8,4 2,3 0,4 Kalm #242/286 -15,5 1017,1 67 -
Low1,9 -0,5 -   -1607,4 1014,8 47 -
Daily Tabular details for Monday Feb 18 2019
Time Temp. ( °C ) Dew pt. ( °C ) Wind ( km/h ) From Gust ( km/h ) Pressure ( hPa ) Humid.( % ) Rainrate ( cm )
00:04 6,4 1,3   Kalm   1019,2 70 -
00:09 6,4 1,3   Kalm 1,6 1019,2 70 -
00:14 6,4 1,3   Kalm   1019,2 70 -
00:19 6,4 1,5   Kalm   1019,2 71 -
00:24 6,3 1,2   Kalm   1018,8 70 -
00:29 6,1 1,2   Kalm   1018,8 71 -
00:34 5,9 1,0   Kalm   1018,8 71 -
00:39 5,8 1,1   Kalm   1018,8 72 -
00:44 5,7 1,0   Kalm 1,6 1019,2 72 -
00:49 5,6 1,0   Kalm   1019,2 72 -
00:53 5,6 1,0   Kalm   1019,2 72 -
00:59 5,4 0,9   Kalm   1019,2 73 -
01:04 5,3 0,9   Kalm   1019,2 73 -
01:09 5,2 0,8   Kalm   1019,2 73 -
01:14 5,1 0,8   Kalm   1019,2 74 -
01:19 5,0 0,8   Kalm   1019,2 74 -
01:24 4,9 0,8   Kalm   1019,2 75 -
01:29 4,8 0,7   Kalm   1019,2 75 -
01:34 4,7 0,6   Kalm   1019,2 75 -
01:39 4,7 0,8   Kalm   1018,8 76 -
01:43 4,7 0,8   Kalm   1019,2 76 -
01:49 4,7 0,8   Kalm   1019,2 76 -
01:54 4,6 0,7   Kalm   1019,2 76 -
01:59 4,6 0,7   Kalm   1019,2 76 -
02:04 4,6 0,7   Kalm   1019,2 76 -
02:09 4,7 1,0   Kalm 1,6 1019,2 77 -
02:14 4,7 0,8   Kalm 1,6 1019,2 76 -
02:19 4,6 0,7   Kalm 1,6 1019,2 76 -
02:24 4,5 0,6   Kalm   1019,2 76 -
02:29 4,4 0,5   Kalm   1019,2 76 -
02:34 4,4 0,5   Kalm   1019,2 76 -
02:39 4,3 0,4   Kalm   1019,2 76 -
02:44 4,2 0,5   Kalm   1019,2 77 -
02:49 4,2 0,5   Kalm   1018,8 77 -
02:54 4,2 0,7   Kalm   1018,8 78 -
02:59 4,1 0,6   Kalm   1018,8 78 -
03:04 4,1 0,6   Kalm   1018,8 78 -
03:09 4,0 0,5   Kalm   1018,8 78 -
03:14 3,8 0,3   Kalm   1018,8 78 -
03:19 3,7 0,4   Kalm   1018,8 79 -
03:24 3,6 0,5   Kalm   1018,8 80 -
03:29 3,6 0,5   Kalm   1018,8 80 -
03:34 3,4 0,3   Kalm   1018,8 80 -
03:39 3,4 0,4   Kalm   1018,8 81 -
03:44 3,4 0,3   Kalm   1018,8 80 -
03:48 3,4 0,4   Kalm   1018,8 81 -
03:54 3,4 0,4   Kalm   1018,8 81 -
03:58 3,5 0,5   Kalm   1018,8 81 -
04:04 3,4 0,3   Kalm   1018,8 80 -
04:09 3,3 0,2   Kalm   1018,8 80 -
04:14 3,2 0,3   Kalm   1018,8 81 -
04:18 3,2 0,3   Kalm   1018,8 81 -
04:24 3,1 0,3   Kalm   1018,5 82 -
04:29 3,1 0,3   Kalm   1018,5 82 -
04:34 3,0 0,2   Kalm   1018,5 82 -
04:39 3,0 0,2   Kalm   1018,5 82 -
04:44 3,1 0,3   Kalm   1018,5 82 -
04:48 3,1 0,3   Kalm   1018,5 82 -
04:54 3,2 0,3   Kalm   1018,5 81 -
04:59 3,2 0,3   Kalm   1018,5 81 -
05:04 3,1 0,2   Kalm   1018,5 81 -
05:09 3,1 0,3   Kalm   1018,5 82 -
05:14 3,0 0,2   Kalm   1018,5 82 -
05:19 2,9 0,0   Kalm   1018,5 81 -
05:24 2,8 -0,1   Kalm   1018,5 81 -
05:28 2,7 -0,2   Kalm   1018,5 81 -
05:34 2,7 -0,1   Kalm   1018,5 82 -
05:39 2,7 0,1   Kalm   1018,5 83 -
05:44 2,8 0,0   Kalm   1018,5 82 -
05:49 2,8 0,0   Kalm   1018,8 82 -
05:54 2,8 0,0   Kalm   1018,8 82 -
05:59 2,8 -0,1   Kalm   1018,8 81 -
06:03 2,7 -0,1   Kalm   1018,8 82 -
06:09 2,6 -0,2   Kalm   1018,8 82 -
06:14 2,6 -0,2   Kalm   1018,8 82 -
06:19 2,6 0,0   Kalm   1018,8 83 -
06:24 2,5 -0,1   Kalm   1018,8 83 -
06:28 2,5 -0,1   Kalm   1018,8 83 -
06:34 2,5 -0,1   Kalm   1018,8 83 -
06:39 2,4 -0,2   Kalm   1018,5 83 -
06:43 2,5 -0,1   Kalm   1018,5 83 -
06:49 2,5 -0,1   Kalm   1018,5 83 -
06:54 2,5 -0,3   Kalm   1018,5 82 -
06:59 2,5 -0,1   Kalm   1018,5 83 -
07:04 2,5 -0,1   Kalm   1018,5 83 -
07:09 2,6 0,0   Kalm 1,6 1018,5 83 -
07:14 2,6 0,0   Kalm   1018,5 83 -
07:19 2,6 0,0   Kalm   1018,5 83 -
07:24 2,6 -0,2   Kalm   1018,5 82 -
07:29 2,6 0,0   Kalm   1018,5 83 -
07:34 2,6 0,0   Kalm   1018,5 83 -
07:39 2,4 -0,4   Kalm   1018,5 82 -
07:44 2,3 -0,3   Kalm   1018,5 83 -
07:49 2,2 -0,4   Kalm   1018,5 83 -
07:54 2,2 -0,4   Kalm   1018,5 83 -
07:59 2,1 -0,5   Kalm   1018,8 83 -
08:04 2,0 -0,4   Kalm   1018,8 84 -
08:09 1,9 -0,5   Kalm   1018,8 84 -
08:14 1,9 -0,5   Kalm 1,6 1018,8 84 -
08:19 2,0 -0,4   Kalm   1018,5 84 -
08:24 2,0 -0,4   Kalm 1,6 1018,8 84 -
08:29 2,1 -0,3   Kalm   1018,5 84 -
08:34 2,2 -0,2   Kalm   1018,5 84 -
08:39 2,2 -0,2   Kalm   1018,5 84 -
08:44 2,3 -0,1   Kalm 1,6 1018,5 84 -
08:49 2,4 -0,2   Kalm 1,6 1018,5 83 -
08:54 2,5 -0,1   Kalm   1018,5 83 -
08:59 2,6 0,0   Kalm   1018,2 83 -
09:03 2,7 0,1   Kalm   1018,2 83 -
09:09 2,8 0,2   Kalm   1018,2 83 -
09:14 3,1 0,3   Kalm   1018,2 82 -
09:19 3,1 0,3   Kalm   1018,2 82 -
09:24 3,1 0,3   Kalm   1018,2 82 -
09:29 3,1 0,3   Kalm -1607,4 1018,2 82 -
09:34 3,1 0,3   Kalm -1607,4 1018,2 82 -
09:39 3,1 0,3   Kalm -1607,4 1018,2 82 -
09:44 4,2 0,9   Kalm 1,6 1018,2 79 -
09:49 4,4 1,1   Kalm   1018,2 79 -
09:54 4,7 1,0   Kalm   1018,2 77 -
09:59 4,9 1,2   Kalm   1017,8 77 -
10:04 5,3 1,2   Kalm   1018,2 75 -
10:09 5,5 1,4   Kalm 1,6 1017,8 75 -
10:14 5,8 1,3   Kalm   1018,2 73 -
10:19 6,2 1,5   Kalm 1,6 1017,8 72 -
10:23 6,4 1,7   Kalm   1017,8 72 -
10:29 6,8 1,7   Kalm 1,6 1017,8 70 -
10:34 7,1 1,8   Kalm   1017,8 69 -
10:39 7,3 1,8   Kalm   1017,8 68 -
10:44 7,6 1,9   Kalm 1,6 1017,8 67 -
10:49 8,0 2,0   Kalm   1018,2 66 -
10:54 8,3 2,1   Kalm 1,6 1017,8 65 -
10:59 8,6 2,2   Kalm 1,6 1017,8 64 -
11:04 8,9 2,2   Kalm   1017,8 63 -
11:09 9,4 2,5   Kalm   1017,8 62 -
11:13 9,7 2,3   Kalm 1,6 1017,8 60 -
11:19 10,0 2,4   Kalm   1017,8 59 -
11:24 10,3 2,2   Kalm 1,6 1017,8 57 -
11:29 10,5 2,3   Kalm 1,6 1017,8 57 -
11:34 10,7 2,3   Kalm 1,6 1017,8 56 -
11:39 11,0 2,6   Kalm 1,6 1017,5 56 -
11:44 11,2 2,2   Kalm   1017,5 54 -
11:49 11,4 2,4   Kalm   1017,5 54 -
11:54 11,6 2,3   Kalm   1017,5 53 -
11:59 11,7 2,4   Kalm 1,6 1017,2 53 -
12:04 11,9 2,6   Kalm   1017,2 53 -
12:09 12,1 2,5   Kalm 1,6 1017,2 52 -
12:14 12,3 2,7 1,4 East 1,6 1017,2 52 -
12:19 12,4 2,5   Kalm 1,6 1016,8 51 -
12:24 12,6 2,7   Kalm 1,6 1016,8 51 -
12:29 12,7 2,8   Kalm 3,2 1016,8 51 -
12:34 12,9 2,7   Kalm   1016,8 50 -
12:39 13,0 2,8   Kalm   1016,8 50 -
12:44 13,2 3,0   Kalm 1,6 1016,8 50 -
12:49 13,3 3,1   Kalm 1,6 1016,8 50 -
12:54 13,4 2,9   Kalm 1,6 1016,8 49 -
12:59 13,6 2,8   Kalm   1016,8 48 -
13:04 13,7 2,9   Kalm 1,6 1016,5 48 -
13:09 13,8 3,0 9,7 West 9,7 1016,5 48 -
13:14 13,9 2,8 3,2 WSW 6,4 1016,5 47 -
13:19 13,9 2,8 3,2 SW 4,8 1016,5 47 -
13:24 14,0 2,9 3,2 WNW 6,4 1016,5 47 -
13:29 14,1 3,3 3,2 WNW 3,2 1016,1 48 -
13:34 14,2 3,3 1,4 East 3,2 1016,1 48 -
13:39 14,2 3,0 3,2 WNW 3,2 1016,1 47 -
13:44 14,2 3,3   Kalm 4,8 1016,1 48 -
13:49 14,3 3,4   Kalm 1,6 1015,8 48 -
13:54 14,4 3,2 3,2 NW 3,2 1015,8 47 -
13:59 14,4 3,2 1,4 SE 4,8 1015,8 47 -
14:04 14,4 3,2 3,2 WNW 6,4 1015,8 47 -
14:09 14,5 3,3 1,4 West 1,6 1015,8 47 -
14:13 14,6 3,7   Kalm 3,2 1015,5 48 -
14:19 14,6 3,7 1,4 East 1,6 1015,5 48 -
14:24 14,7 3,5 7,9 NW 8,0 1015,5 47 -
14:29 14,8 3,6   Kalm 1,6 1015,5 47 -
14:34 14,9 3,7 8,0 West 8,0 1015,1 47 -
14:39 14,9 4,0   Kalm   1015,5 48 -
14:44 14,9 3,7 7,9 WNW 9,7 1015,1 47 -
14:49 14,8 3,9 3,2 WNW 6,4 1015,1 48 -
14:54 14,9 4,0 1,4 WNW 9,7 1015,1 48 -
14:59 14,9 4,0 6,4 WNW 6,4 1015,1 48 -
15:04 14,9 4,0   Kalm 4,8 1015,1 48 -
15:09 15,1 3,9 1,4 WSW 3,2 1015,1 47 -
15:14 15,1 3,9   Kalm   1015,1 47 -
15:19 15,1 4,2 3,2 WSW 4,8 1015,1 48 -
15:24 15,2 4,3   Kalm 8,0 1015,1 48 -
15:29 15,2 4,0 1,4 WNW 4,8 1015,1 47 -
15:34 15,2 4,0 1,4 West 8,0 1015,1 47 -
15:39 15,3 4,4   Kalm 3,2 1015,1 48 -
15:44 15,3 4,4   Kalm 1,6 1015,1 48 -
15:49 15,4 4,4   Kalm 1,6 1015,1 48 -
15:53 15,4 4,4   Kalm   1015,1 48 -
15:59 15,3 4,1   Kalm 1,6 1015,1 47 -
16:03 15,3 4,1   Kalm 1,6 1015,1 47 -
16:09 15,3 4,1   Kalm 4,8 1015,1 47 -
16:14 15,3 4,4 1,4 WNW 1,6 1015,1 48 -
16:19 15,2 4,3   Kalm   1015,1 48 -
16:24 15,2 4,3   Kalm   1014,8 48 -
16:29 15,2 4,3   Kalm 1,6 1014,8 48 -
16:34 15,2 4,6   Kalm 1,6 1015,1 49 -
16:39 15,4 4,4   Kalm 1,6 1015,1 48 -
16:44 15,7 5,0   Kalm 4,8 1015,1 49 -
16:49 15,8 4,8 6,4 WNW 11,3 1015,1 48 -
16:54 15,7 5,0 4,7 WSW 6,4 1015,1 49 -
16:59 15,6 4,9   Kalm 8,0 1015,1 49 -
17:04 15,7 5,0   Kalm 1,6 1015,1 49 -
17:09 15,7 5,3   Kalm 1,6 1015,1 50 -
17:14 15,8 5,1   Kalm 1,6 1015,1 49 -
17:19 15,7 5,0   Kalm 1,6 1015,1 49 -
17:24 15,3 4,9   Kalm 1,6 1015,1 50 -
17:29 15,0 4,9 1,4 WSW 1,6 1015,1 51 -
17:34 14,7 4,9   Kalm 1,6 1015,1 52 -
17:39 14,5 4,8 1,4 West 3,2 1015,1 52 -
17:44 14,2 4,5   Kalm 6,4 1015,1 52 -
17:49 13,9 4,5   Kalm   1015,1 53 -
17:54 13,6 4,2   Kalm 1,6 1015,1 53 -
17:59 13,4 4,3 1,4 ESE 1,6 1015,1 54 -
18:04 13,2 4,4   Kalm 1,6 1015,1 55 -
18:09 12,9 4,3   Kalm 1,6 1015,1 56 -
18:14 12,8 4,2   Kalm 1,6 1015,1 56 -
18:19 12,7 4,1   Kalm   1015,1 56 -
18:24 12,5 4,2   Kalm 1,6 1015,1 57 -
18:29 12,4 4,1   Kalm   1015,1 57 -
18:34 12,2 4,2   Kalm   1015,1 58 -
18:39 12,0 4,2   Kalm   1015,1 59 -
18:44 11,8 4,0   Kalm   1015,1 59 -
18:49 11,7 4,2   Kalm   1015,1 60 -
18:54 11,6 4,1   Kalm   1015,5 60 -
18:58 11,5 4,2   Kalm 1,6 1015,1 61 -
19:04 11,3 4,1   Kalm   1015,5 61 -
19:09 11,2 4,2   Kalm   1015,1 62 -
19:14 11,2 4,2   Kalm   1015,1 62 -
19:19 10,9 3,9   Kalm   1015,1 62 -
19:24 10,8 4,0   Kalm   1015,1 63 -
19:29 10,8 4,0   Kalm   1015,5 63 -
19:34 10,8 3,8 1,4 ESE 1,6 1015,5 62 -
19:38 10,8 3,8   Kalm   1015,5 62 -
19:44 10,8 3,6   Kalm 1,6 1015,5 61 -
19:49 10,8 3,6   Kalm 1,6 1015,5 61 -
19:54 10,8 3,8   Kalm   1015,5 62 -
19:59 10,7 3,7 1,4 ESE 3,2 1015,5 62 -
20:04 10,7 3,7   Kalm 1,6 1015,5 62 -
20:09 10,7 3,7 1,4 ESE 3,2 1015,5 62 -
20:14 10,7 3,7 3,2 SE 6,4 1015,5 62 -
20:19 10,7 3,7   Kalm 1,6 1015,5 62 -
20:24 10,6 3,8   Kalm 6,4 1015,5 63 -
20:29 10,6 3,8   Kalm 1,6 1015,5 63 -
20:34 10,6 3,8   Kalm 1,6 1015,8 63 -
20:39 10,5 4,0 1,4 NW 1,6 1015,8 64 -
20:44 10,4 3,9 1,4 ENE 1,6 1015,8 64 -
20:49 10,4 3,9   Kalm 1,6 1015,8 64 -
20:54 10,3 3,8   Kalm 1,6 1015,8 64 -
20:59 10,3 4,0   Kalm 1,6 1015,8 65 -
21:04 10,2 3,9   Kalm 3,2 1015,8 65 -
21:09 10,1 4,0   Kalm 1,6 1015,8 66 -
21:13 10,0 3,9   Kalm 4,8 1015,8 66 -
21:19 9,9 4,1   Kalm 1,6 1015,8 67 -
21:24 9,8 4,0 6,4 WNW 6,4 1015,8 67 -
21:29 9,7 4,1   Kalm   1015,8 68 -
21:34 9,6 4,0   Kalm 1,6 1015,8 68 -
21:39 9,6 4,0 1,4 SSW 1,6 1015,8 68 -
21:44 9,6 4,2 1,4 ENE 1,6 1015,8 69 -
21:49 9,6 4,2 1,4 WNW 3,2 1015,8 69 -
21:54 9,6 4,2   Kalm 1,6 1015,8 69 -
21:59 9,5 4,1   Kalm 1,6 1015,8 69 -
22:04 9,4 4,2 1,4 West 4,8 1015,8 70 -
22:09 9,4 4,2   Kalm 3,2 1015,8 70 -
22:13 9,4 4,2   Kalm   1015,8 70 -
22:19 9,3 4,3   Kalm 1,6 1015,8 71 -
22:24 9,2 4,2   Kalm   1015,8 71 -
22:29 9,2 4,2   Kalm 3,2 1015,8 71 -
22:34 9,2 4,2 1,4 WNW 1,6 1015,8 71 -
22:39 9,1 4,3 1,4 West 3,2 1015,8 72 -
22:43 8,9 4,1 1,4 West 1,6 1015,8 72 -
22:49 8,9 4,1 1,4 West 3,2 1015,8 72 -
22:54 8,8 4,2   Kalm 1,6 1015,8 73 -
22:59 8,7 4,1   Kalm   1015,8 73 -
23:04 8,6 4,0   Kalm 1,6 1015,8 73 -
23:09 8,5 4,1   Kalm   1015,8 74 -
23:14 8,4 4,0   Kalm 4,8 1015,8 74 -
23:18 8,4 4,0   Kalm 1,6 1015,8 74 -
23:24 8,3 4,1   Kalm 3,2 1016,1 75 -
23:29 8,3 4,1   Kalm 1,6 1016,1 75 -
23:34 8,3 4,1   Kalm 3,2 1016,1 75 -
23:39 8,3 4,1   Kalm 1,6 1016,1 75 -
23:44 8,2 4,0   Kalm   1016,1 75 -
23:49 8,2 4,0   Kalm   1016,1 75 -

Download your copy of this data-set  from WeatherUnderground

Our weather-data as stored at Weather Underground. Original script b Jim McMurry. Rewritten for template use Leuven-Template